Location: Spring Creek
(38.2870°N, 100.2160°W)
Time: 03:43:39
(UTC+00:00)

Cosmos 1707 - Pass Details

Date: 08 May 2021
Orbit: 516 x 528 km, 82.5° (Epoch: 22 June)

Event Time Altitude Azimuth Distance (km) Brightness Sun altitude
Exits shadow 08:51:23 36° 352° (N) 839 4.0 -26.2°
Drops below altitude 10° 08:53:46 10° 2° (N) 1,751 6.1 -26.0°
Sets 08:55:55 0° 5° (N) 2,642 7.2 -25.7°
